FW6720 Weather Reports


Display with metric or nautical units.
time (UTC)temp
F
wind
direction
speed
MPH
gust
MPH
rain 1hr
in
rain 24hr
in
rain mn
in
humidity
%
barometer
mb
20260903214045 56 5 0.0 0.0 0.07 0.61 0.61 96 1011.3
20260903213540 57 5 0.0 0.0 0.07 0.61 0.61 95 1011.4
20260903213036 57 4 0.0 0.0 0.00 0.60 0.60 96 1011.4
20260903212532 57 4 0.0 0.0 0.00 0.60 0.60 96 1011.3
20260903212027 57 5 0.0 0.0 0.00 0.60 0.60 96 1011.3
20260903211522 57 4 0.0 0.0 0.00 0.60 0.60 96 1011.3
20260903211018 57 4 0.0 0.0 0.00 0.60 0.60 96 1011.2
20260903210518 57 43 0.0 0.0 0.00 0.60 0.60 96 1011.2
20260903210009 57 44 0.0 0.0 0.00 0.60 0.60 96 1011.1
20260903205508 57 43 0.0 0.0 0.00 0.60 0.60 96 1011.1
20260903205002 57 44 0.0 0.0 0.00 0.60 0.60 96 1011.0
20260903204459 57 45 0.0 0.0 0.00 0.60 0.60 97 1011.1
20260903203954 56 46 0.0 0.0 0.00 0.60 0.60 97 1011.2
20260903203449 56 40 0.0 0.0 0.00 0.60 0.60 97 1011.0
20260903202948 56 64 0.0 0.0 0.00 0.60 0.60 98 1011.1
20260903202444 55 64 0.0 0.0 0.00 0.60 0.60 98 1011.2
20260903201939 55 65 0.0 0.0 0.00 0.60 0.60 98 1011.3
20260903201434 55 65 0.0 0.0 0.00 0.60 0.60 98 1011.3
20260903200933 54 65 0.0 0.0 0.00 0.60 0.60 98 1011.2
20260903200428 54 64 0.0 0.0 0.12 0.60 0.60 98 1011.4
20260903195923 54 64 0.0 0.0 0.35 0.60 0.60 98 1011.1
20260903195420 55 64 0.0 0.0 0.26 0.57 0.57 98 1011.3
20260903194914 55 64 0.0 0.0 0.05 0.53 0.53 98 1011.6
20260903194410 55 64 0.0 0.0 0.07 0.52 0.52 98 1011.4
20260903193905 55 64 0.0 0.0 0.12 0.52 0.52 98 1011.4
20260903193401 55 64 0.0 0.0 0.05 0.51 0.51 98 1011.3
20260903192856 55 64 0.0 0.0 0.00 0.50 0.50 98 1011.4
20260903192352 55 64 0.0 0.0 0.00 0.50 0.50 98 1011.5
20260903191849 55 64 0.0 0.0 0.00 0.50 0.50 97 1011.5
20260903191344 54 64 0.0 0.0 0.00 0.50 0.50 97 1011.5
20260903190844 54 64 0.0 0.0 0.00 0.50 0.50 98 1011.6
20260903190338 54 64 0.0 0.0 0.00 0.50 0.50 98 1011.5
20260903185837 54 64 0.0 0.0 0.00 0.50 0.50 98 1011.6
20260903185333 54 65 0.0 0.0 0.07 0.50 0.50 98 1011.7
20260903184829 53 65 0.0 0.0 0.12 0.50 0.50 98 1011.4
20260903184326 53 64 0.0 0.0 0.12 0.49 0.49 97 1011.7
20260903183826 53 64 0.0 0.0 0.12 0.48 0.48 98 1011.9
20260903183321 53 64 0.0 0.0 0.05 0.47 0.47 98 1012.0
20260903182819 53 64 0.0 0.0 0.00 0.46 0.46 98 1011.7
20260903182314 54 64 0.0 0.0 0.00 0.46 0.46 98 1011.6
20260903181814 54 64 0.0 0.0 0.07 0.46 0.46 98 1011.5
20260903181309 54 64 0.0 0.0 0.07 0.46 0.46 98 1011.6
20260903180809 54 64 0.0 0.0 0.05 0.45 0.45 98 1011.6
20260903180308 54 64 0.0 0.0 0.12 0.45 0.45 98 1011.5
20260903175808 54 64 0.0 0.0 0.14 0.44 0.44 98 1011.7
20260903175307 54 64 0.0 0.0 0.07 0.43 0.43 98 1011.7
20260903174801 55 64 0.0 0.0 0.00 0.42 0.42 98 1011.8
20260903174256 55 64 0.0 0.0 0.05 0.42 0.42 98 1011.5
20260903173751 55 64 0.0 0.0 0.00 0.41 0.41 98 1011.7
20260903173247 55 64 0.0 0.0 0.07 0.41 0.41 98 1011.5
20260903172742 54 64 0.0 0.0 0.07 0.41 0.41 98 1011.4
20260903172236 55 64 0.0 0.0 0.00 0.40 0.40 98 1011.3
20260903171732 55 64 0.0 0.0 0.00 0.40 0.40 98 1011.3
20260903171228 55 64 0.0 0.0 0.00 0.40 0.40 98 1011.4
20260903170726 55 64 0.0 0.0 0.00 0.40 0.40 99 1011.3
20260903170222 55 65 0.0 0.0 0.00 0.40 0.40 99 1011.2
20260903165720 55 25 0.0 0.0 0.00 0.40 0.40 99 1011.3
20260903165215 55 25 0.0 0.0 0.00 0.40 0.40 99 1011.0
20260903164709 55 25 0.0 0.0 0.00 0.40 0.40 99 1011.1
20260903164206 55 24 0.0 0.0 0.00 0.40 0.40 99 1011.4
20260903163705 55 24 0.0 0.0 0.00 0.40 0.40 99 1011.3
20260903163201 55 24 0.0 0.0 0.00 0.40 0.40 99 1011.1
20260903162657 55 24 0.0 0.0 0.00 0.40 0.40 99 1011.3
20260903162153 54 24 0.0 0.0 0.00 0.40 0.40 99 1010.9
20260903161649 54 24 0.0 0.0 0.00 0.40 0.40 99 1011.1
20260903161143 54 24 0.0 0.0 0.00 0.40 0.40 99 1011.1
20260903160639 54 52 0.0 0.0 0.00 0.40 0.40 99 1011.3
20260903160133 54 52 0.0 0.0 0.00 0.40 0.40 99 1011.1
20260903155632 54 52 0.0 0.0 0.00 0.40 0.40 99 1011.1
20260903155127 54 52 0.0 0.0 0.00 0.40 0.40 99 1011.3
20260903154623 54 52 0.0 0.0 0.05 0.40 0.40 99 1011.0
20260903154119 54 52 0.0 0.0 0.05 0.40 0.40 99 1011.0
20260903153614 54 53 0.0 0.0 0.07 0.39 0.39 99 1011.0
20260903153110 54 52 0.0 0.0 0.07 0.39 0.39 99 1011.1
20260903152606 54 52 0.0 0.0 0.00 0.38 0.38 99 1011.2
20260903152102 54 52 0.0 0.0 0.00 0.38 0.38 99 1011.1
20260903151602 53 52 0.0 0.0 0.05 0.38 0.38 99 1011.0
20260903151057 53 52 0.0 0.0 0.12 0.38 0.38 99 1011.0
20260903150556 53 52 0.0 0.0 0.07 0.37 0.37 99 1011.0
20260903150052 53 53 0.0 0.0 0.00 0.36 0.36 99 1010.9
20260903145551 53 53 0.0 0.0 0.00 0.36 0.36 99 1011.0
20260903145046 53 52 0.0 0.0 0.05 0.36 0.36 99 1010.9
20260903144545 53 52 0.0 0.0 0.12 0.36 0.36 99 1010.6
20260903144042 53 53 0.0 0.0 0.05 0.34 0.34 99 1010.9
20260903143538 53 52 0.0 0.0 0.12 0.34 0.34 99 1010.8
20260903143033 53 52 0.0 0.0 0.19 0.33 0.33 99 1010.8
20260903142528 53 52 0.0 0.0 0.24 0.32 0.32 99 1011.1
20260903142025 53 53 0.0 0.0 0.05 0.29 0.29 99 1010.9
20260903141520 53 53 0.0 0.0 0.00 0.28 0.28 99 1011.0
20260903141015 53 53 0.0 0.0 0.00 0.28 0.28 99 1010.9
20260903140511 53 53 0.0 0.0 0.07 0.28 0.28 99 1010.8
20260903140006 53 53 0.0 0.0 0.00 0.27 0.27 99 1010.8
20260903135502 53 53 0.0 0.0 0.00 0.27 0.27 99 1010.6
20260903134956 53 53 0.0 0.0 0.00 0.27 0.27 99 1010.8
20260903134455 53 54 0.0 0.0 0.00 0.27 0.27 99 1010.7
20260903133952 53 54 0.0 0.0 0.00 0.27 0.27 99 1010.7
20260903133449 53 54 0.0 0.0 0.00 0.27 0.27 99 1010.4
20260903132944 53 54 0.0 0.0 0.00 0.27 0.27 99 1010.7
20260903132440 53 54 0.0 0.0 0.00 0.27 0.27 99 1010.6
20260903131939 53 54 0.0 0.0 0.12 0.27 0.27 99 1010.7
20260903131435 53 54 0.0 0.0 0.17 0.27 0.27 99 1010.8
20260903130933 53 54 0.0 0.0 0.12 0.25 0.25 99 1010.6
20260903130429 53 54 0.0 0.0 0.07 0.24 0.24 99 1010.5
20260903125928 53 54 0.0 0.0 0.00 0.23 0.23 99 1010.4
20260903125427 53 54 0.0 0.0 0.00 0.23 0.23 99 1010.5
20260903124927 53 54 0.0 0.0 0.00 0.23 0.23 99 1010.3
20260903124422 53 54 0.0 0.0 0.00 0.23 0.23 99 1010.4
20260903123921 53 54 0.0 0.0 0.00 0.23 0.23 99 1010.5
20260903123416 53 54 0.0 0.0 0.05 0.23 0.23 99 1010.2
20260903122914 53 54 0.0 0.0 0.05 0.23 0.23 99 1010.4
20260903122409 53 54 0.0 0.0 0.00 0.22 0.22 99 1010.7
20260903121908 53 54 0.0 0.0 0.00 0.22 0.22 99 1010.6
20260903121403 53 54 0.0 0.0 0.00 0.22 0.22 99 1010.5
20260903120900 53 54 0.0 0.0 0.12 0.22 0.22 99 1010.5
20260903120358 53 54 0.0 0.0 0.12 0.22 0.22 99 1010.7
20260903115857 53 54 0.0 0.0 0.00 0.20 0.20 99 1010.6
20260903115351 53 54 0.0 0.0 0.00 0.20 0.20 99 1010.6
20260903114851 53 54 0.0 0.0 0.07 0.20 0.20 99 1010.4
20260903114348 53 54 0.0 0.0 0.07 0.20 0.20 99 1010.5
20260903113843 53 54 0.0 0.0 0.00 0.19 0.19 99 1010.7
20260903113338 53 54 0.0 0.0 0.00 0.19 0.19 99 1010.8
20260903112834 53 54 0.0 0.0 0.05 0.19 0.19 99 1010.6
20260903112330 53 54 0.0 0.0 0.05 0.19 0.19 99 1010.7
20260903111829 53 54 0.0 0.0 0.07 0.18 0.18 99 1010.7
20260903111329 53 54 0.0 0.0 0.07 0.18 0.18 98 1010.7
20260903110825 53 54 0.0 0.0 0.07 0.17 0.17 98 1010.7
20260903110320 53 54 0.0 0.0 0.12 0.17 0.17 98 1010.8
20260903105815 53 54 0.0 0.0 0.17 0.16 0.16 98 1010.6
20260903105309 53 54 0.0 0.0 0.19 0.15 0.15 98 1010.7
20260903104809 53 54 0.0 0.0 0.12 0.13 0.13 98 1010.8
20260903104304 53 54 0.0 0.0 0.12 0.12 0.12 98 1010.6
20260903103801 53 54 0.0 0.0 0.12 0.11 0.11 98 1010.5
20260903103256 53 54 0.0 0.0 0.05 0.10 0.10 98 1010.5
20260903102752 53 54 0.0 0.0 0.07 0.09 0.09 98 1010.5
20260903102246 53 54 0.0 0.0 0.07 0.09 0.09 98 1010.6
20260903101744 53 54 0.0 0.0 0.05 0.08 0.08 98 1010.6
20260903101240 53 54 0.0 0.0 0.12 0.08 0.08 98 1010.7
20260903100735 53 54 0.0 0.0 0.07 0.07 0.07 98 1010.6
20260903100229 53 54 0.0 0.0 0.07 0.06 0.06 98 1010.7
20260903095727 53 54 0.0 0.0 0.00 0.05 0.05 98 1010.3
20260903095222 54 54 0.0 0.0 0.00 0.05 0.05 98 1010.5
20260903094717 54 54 0.0 0.0 0.00 0.05 0.05 98 1010.3
20260903094212 54 54 0.0 0.0 0.00 0.05 0.05 98 1010.5
20260903093708 54 54 0.0 0.0 0.00 0.05 0.05 98 1010.4
20260903093203 53 54 0.0 0.0 0.00 0.05 0.05 98 1010.3
20260903092702 53 54 0.0 0.0 0.00 0.05 0.05 98 1010.5
20260903092157 53 54 0.0 0.0 0.00 0.05 0.05 98 1010.6
20260903091656 53 54 0.0 0.0 0.00 0.05 0.05 98 1010.6
20260903091150 53 54 0.0 0.0 0.00 0.05 0.05 98 1010.7
20260903090646 53 54 0.0 0.0 0.00 0.05 0.05 98 1010.5
20260903090144 53 54 0.0 0.0 0.00 0.05 0.05 98 1010.6
20260903085643 53 54 0.0 0.0 0.00 0.05 0.05 98 1010.4
20260903085140 53 54 0.0 0.0 0.00 0.05 0.05 98 1010.8
20260903084636 53 54 0.0 0.0 0.05 0.05 0.05 98 1010.6
20260903084131 53 54 0.0 0.0 0.05 0.05 0.05 98 1010.9
20260903083627 53 54 0.0 0.0 0.12 0.04 0.04 98 1010.6
20260903083121 53 54 0.0 0.0 0.17 0.03 0.03 98 1010.7
20260903082616 52 54 0.0 0.0 0.05 0.01 0.01 98 1010.7
20260903082112 53 54 0.0 0.0 0.00 0.00 0.00 98 1010.7
20260903081607 52 54 0.0 0.0 0.00 0.00 0.00 98 1010.7
20260903081103 53 54 0.0 0.0 0.00 0.00 0.00 98 1010.8
20260903080558 52 54 0.0 0.0 0.00 0.00 0.00 98 1010.7
20260903080055 52 54 0.0 0.0 0.00 0.00 0.00 98 1010.8
20260903075549 53 54 0.0 0.0 0.00 0.00 0.00 98 1010.8
20260903075045 53 54 0.0 0.0 0.00 0.00 0.00 98 1010.9
20260903074544 53 54 0.0 0.0 0.00 0.00 0.00 98 1010.8
20260903074038 53 54 0.0 0.0 0.00 0.00 0.00 98 1010.8
20260903073534 53 54 0.0 0.0 0.00 0.00 0.00 98 1010.9
20260903073030 53 54 0.0 0.0 0.00 0.00 0.00 98 1010.7
20260903072526 53 54 0.0 0.0 0.00 0.00 0.00 98 1010.8
20260903072022 53 54 0.0 0.0 0.00 0.00 0.00 98 1010.9
20260903071518 53 54 0.0 0.0 0.00 0.00 0.00 98 1010.7
20260903071018 53 54 0.0 0.0 0.00 0.00 0.00 98 1010.9
20260903070512 53 54 0.0 0.0 0.00 0.00 0.00 98 1010.8
20260903070008 53 54 0.0 0.0 0.00 0.49 0.49 98 1010.9
20260903065502 53 54 0.0 0.0 0.00 0.49 0.49 98 1010.8
20260903065001 53 54 0.0 0.0 0.00 0.49 0.49 98 1010.8
20260903064456 53 54 0.0 0.0 0.00 0.49 0.49 98 1010.9
20260903063952 53 54 0.0 0.0 0.00 0.49 0.49 98 1010.7
20260903063447 53 54 0.0 0.0 0.00 0.49 0.49 98 1010.9
20260903062942 53 54 0.0 0.0 0.00 0.49 0.49 98 1010.9
20260903062437 53 54 0.0 0.0 0.00 0.49 0.49 98 1010.7
20260903061933 53 54 0.0 0.0 0.00 0.49 0.49 98 1010.9
20260903061432 53 54 0.0 0.0 0.00 0.49 0.49 98 1010.8
20260903060927 53 54 0.0 0.0 0.00 0.49 0.49 98 1011.0
20260903060422 53 54 0.0 0.0 0.00 0.49 0.49 98 1010.8
20260903055920 53 54 0.0 0.0 0.00 0.49 0.49 98 1011.0
20260903055419 53 54 0.0 0.0 0.00 0.49 0.49 98 1010.9
20260903054914 53 54 0.0 0.0 0.00 0.49 0.49 98 1011.0
20260903054413 53 54 0.0 0.0 0.00 0.49 0.49 97 1010.9
20260903053910 53 54 0.0 0.0 0.00 0.49 0.49 98 1010.9
20260903053404 53 54 0.0 0.0 0.00 0.49 0.49 97 1011.0
20260903052900 53 54 0.0 0.0 0.00 0.49 0.49 97 1011.2
20260903052356 53 54 0.0 0.0 0.00 0.49 0.49 97 1010.9
20260903051852 53 54 0.0 0.0 0.00 0.49 0.49 97 1010.9
20260903051347 53 54 0.0 0.0 0.00 0.49 0.49 97 1011.2
20260903050842 53 54 0.0 0.0 0.00 0.49 0.49 97 1011.0
20260903050341 53 54 0.0 0.0 0.00 0.49 0.49 97 1011.1
20260903045836 53 54 0.0 0.0 0.00 0.49 0.49 97 1011.1
20260903045332 53 54 0.0 0.0 0.00 0.49 0.49 97 1011.0
20260903044829 53 54 0.0 0.0 0.00 0.49 0.49 97 1011.1
20260903044329 53 54 0.0 0.0 0.00 0.49 0.49 97 1011.1
20260903043825 53 54 0.0 0.0 0.00 0.49 0.49 96 1011.0
20260903043320 53 54 0.0 0.0 0.00 0.49 0.49 96 1010.8
20260903042819 53 54 0.0 0.0 0.00 0.49 0.49 96 1010.7
20260903042314 53 54 0.0 0.0 0.00 0.49 0.49 96 1010.6
20260903041810 53 54 0.0 0.0 0.00 0.49 0.49 96 1010.9
20260903041306 53 54 0.0 0.0 0.00 0.49 0.49 96 1010.6
20260903040806 54 54 0.0 0.0 0.00 0.49 0.49 96 1010.5
20260903040306 53 54 0.0 0.0 0.00 0.49 0.49 96 1010.4
20260903035802 54 54 0.0 0.0 0.00 0.49 0.49 96 1010.4
20260903035257 54 54 0.0 0.0 0.00 0.49 0.49 96 1010.4
20260903034752 54 54 0.0 0.0 0.00 0.49 0.49 96 1010.2
20260903034248 54 54 0.0 0.0 0.00 0.49 0.49 96 1010.2
20260903033743 54 54 0.0 0.0 0.00 0.49 0.49 96 1010.5
20260903033238 54 54 0.0 0.0 0.00 0.49 0.49 96 1010.0
20260903032732 54 54 0.0 0.0 0.00 0.49 0.49 95 1010.1
20260903032228 54 54 0.0 0.0 0.00 0.49 0.49 95 1010.0
20260903031724 54 54 0.0 0.0 0.00 0.49 0.49 93 1010.1
20260903031223 54 54 0.0 0.0 0.00 0.49 0.49 93 1010.1
20260903030719 54 54 0.0 0.0 0.00 0.49 0.49 93 1010.1
20260903030215 54 54 0.0 0.0 0.00 0.49 0.49 92 1010.0
20260903025710 54 54 0.0 0.0 0.00 0.49 0.49 91 1010.0
20260903025206 54 54 0.0 0.0 0.00 0.49 0.49 91 1009.8
20260903024706 54 54 0.0 0.0 0.00 0.49 0.49 90 1009.8
20260903024204 55 53 0.0 0.0 0.00 0.49 0.49 90 1009.7
20260903023701 55 53 0.0 0.0 0.00 0.49 0.49 90 1009.9
20260903023156 55 53 0.0 0.0 0.00 0.49 0.49 90 1009.6
20260903022650 56 53 0.0 0.0 0.00 0.49 0.49 89 1009.8
20260903022149 56 53 0.0 0.0 0.00 0.49 0.49 89 1009.7
20260903021644 56 53 0.0 0.0 0.00 0.49 0.49 88 1009.7
20260903021138 57 53 0.0 0.0 0.00 0.49 0.49 88 1009.6
20260903020633 57 53 0.0 0.0 0.00 0.49 0.49 88 1009.3
20260903020128 57 53 0.0 0.0 0.00 0.49 0.49 88 1009.6
20260903015623 57 53 0.0 0.0 0.00 0.49 0.49 88 1009.3
20260903015119 58 53 0.0 0.0 0.00 0.49 0.49 87 1009.5
20260903014619 58 53 0.0 0.0 0.00 0.49 0.49 86 1009.5
20260903014119 59 53 0.0 0.0 0.00 0.49 0.49 85 1009.2
20260903013619 59 53 0.0 0.0 0.00 0.49 0.49 77 1009.3
20260903013113 59 53 0.0 0.0 0.00 0.49 0.49 77 1009.6
20260903012612 60 54 0.0 0.0 0.00 0.49 0.49 79 1009.4
20260903012112 59 53 0.0 0.0 0.00 0.49 0.49 79 1009.4
20260903011611 60 53 0.0 0.0 0.00 0.49 0.49 81 1009.2
20260903011111 60 53 0.0 0.0 0.00 0.49 0.49 83 1009.1
20260903010607 60 53 0.0 0.0 0.00 0.49 0.49 79 1009.2
20260903010105 59 53 0.0 0.0 0.00 0.49 0.49 80 1009.0
20260903005600 60 53 0.0 0.0 0.00 0.49 0.49 81 1009.0
20260903005055 60 53 0.0 0.0 0.00 0.49 0.49 76 1009.0
20260903004550 59 53 0.0 0.0 0.00 0.49 0.49 78 1009.1
20260903004045 60 53 0.0 0.0 0.00 0.49 0.49 77 1009.0
20260903003546 60 53 0.0 0.0 0.00 0.49 0.49 80 1008.7
20260903003041 60 53 0.0 0.0 0.00 0.49 0.49 81 1009.0
20260903002536 61 53 0.0 0.0 0.00 0.49 0.49 81 1008.7
20260903002031 61 53 0.0 0.0 0.00 0.49 0.49 75 1008.8
20260903001526 61 53 0.0 0.0 0.00 0.49 0.49 71 1008.8
20260903001025 61 54 0.0 0.0 0.00 0.49 0.49 72 1008.6
20260903000521 60 53 0.0 0.0 0.00 0.49 0.49 78 1008.8
20260903000020 61 53 0.0 0.0 0.00 0.49 0.49 81 1008.8
20260902235514 61 53 0.0 0.0 0.00 0.49 0.49 75 1008.6
20260902235009 62 52 0.0 0.0 0.00 0.49 0.49 79 1008.7
20260902234504 61 50 0.0 0.0 0.00 0.49 0.49 74 1008.5
20260902234002 61 49 0.0 0.0 0.00 0.49 0.49 78 1008.5
20260902233502 61 50 0.0 0.0 0.00 0.49 0.49 76 1008.6
20260902232956 61 33 0.0 0.0 0.00 0.49 0.49 79 1008.5
20260902232450 61 19 0.0 0.0 0.00 0.49 0.49 78 1008.3
20260902231950 61 61 0.0 0.0 0.00 0.49 0.49 80 1008.5
20260902231444 60 61 1.0 2.0 0.00 0.49 0.49 81 1008.5
20260902230939 60 44 0.0 0.0 0.00 0.49 0.49 80 1008.5
20260902230434 61 65 0.0 0.0 0.00 0.49 0.49 83 1008.6
20260902225927 61 51 0.0 0.0 0.00 0.49 0.49 83 1008.4
20260902225423 60 21 0.0 0.0 0.00 0.49 0.49 84 1008.0
20260902224922 60 21 0.0 0.0 0.00 0.49 0.49 86 1008.3
20260902224421 59 61 0.0 0.0 0.00 0.49 0.49 88 1008.2
20260902223919 59 65 1.0 2.0 0.00 0.49 0.49 89 1008.4
20260902223418 59 49 0.0 0.0 0.00 0.49 0.49 91 1007.9
20260902222913 58 50 0.0 0.0 0.00 0.49 0.49 90 1008.1
20260902222411 57 51 0.0 0.0 0.00 0.49 0.49 93 1008.1
20260902221911 57 48 0.0 0.0 0.00 0.49 0.49 92 1008.0
20260902221410 57 44 0.0 0.0 0.00 0.49 0.49 93 1008.1
20260902220906 57 45 0.0 0.0 0.00 0.49 0.49 93 1007.9
20260902220406 58 61 0.0 0.0 0.00 0.49 0.49 96 1008.1
20260902215901 58 48 0.0 0.0 0.00 0.49 0.49 96 1008.1
20260902215356 58 46 0.0 0.0 0.00 0.49 0.49 95 1007.8
20260902214852 57 50 1.0 2.0 0.07 0.49 0.49 94 1007.5
20260902214351 58 53 0.0 0.0 0.12 0.49 0.49 98 1007.6